Weather History for Warrensburg, MO

Change the Weather History Date:

Thursday, September 26, 2013

  Actual Average (KSZL) Record (KSZL)
Temperature  
Mean Temperature 70 °F -  
Max Temperature 82 °F 74 °F 86 °F (1998)
Min Temperature 57 °F 51 °F 37 °F (2000)
Cooling Degree Days 4    
Growing Degree Days 20 (Base 50)    
Moisture  
Dew Point 59 °F    
Average Humidity 72    
Maximum Humidity 100    
Minimum Humidity 39    
Precipitation  
Precipitation 0.00 in - - ()
Sea Level Pressure  
Sea Level Pressure 29.91 in    
Wind  
Wind Speed 5 mph (SE)    
Max Wind Speed 14 mph    
Max Gust Speed 17 mph    
Visibility 9 miles    
Events Fog    
Averages and records for this station are not official NWS values.
T = Trace of Precipitation, MM = Missing Value Source: NWS Daily Summary

Daily Weather History Graph

Daily Weather History Graph

Search for Another Location

Airport:

Trip Planner

Search our weather history database for the weather conditions in past years. The results will help you decide how hot, cold, wet, or windy it might be!

Date:

Astronomy

Sep. 26, 2013 Rise Set
Actual Time 7:06 AM CDT 7:05 PM CDT
Civil Twilight 6:40 AM CDT 7:31 PM CDT
Nautical Twilight 6:09 AM CDT 8:02 PM CDT
Astronomical Twilight 5:37 AM CDT 8:34 PM CDT
Moon No Moon Rise 1:56 PM CDT (9/26)
Length of Visible Light 12h 51m
Length of Day
11h 58m
Waning Gibbous, 54% of the Moon is Illuminated
Sep 26
Waning Gibbous
Sep 26
Last Quarter
Oct 4
New
Oct 11
First Quarter
Oct 18
Full

Hourly Weather History & Observations

Time (CDT) Temp. Heat Index Dew Point Humidity Pressure Visibility Wind Dir Wind Speed Gust Speed Precip Events Conditions
12:15 AM 60.8 °F - 59.0 °F 94% 29.87 in 10.0 mi Calm Calm - N/A   Clear
12:35 AM 59.0 °F - 55.4 °F 88% 29.87 in 0.5 mi NNE 3.5 mph - N/A Fog Fog
12:55 AM 59.0 °F - 59.0 °F 100% 29.87 in 5.0 mi Calm Calm - N/A   Clear
1:15 AM 60.8 °F - 59.0 °F 94% 29.87 in 10.0 mi Calm Calm - N/A   Clear
1:35 AM 59.0 °F - 55.4 °F 88% 29.88 in 1.0 mi Calm Calm - N/A   Mist
1:55 AM 59.0 °F - 59.0 °F 100% 29.88 in 7.0 mi Calm Calm - N/A   Clear
2:15 AM 60.8 °F - 59.0 °F 94% 29.88 in 7.0 mi SE 3.5 mph - N/A   Clear
2:35 AM 60.8 °F - 59.0 °F 94% 29.89 in 7.0 mi Calm Calm - N/A   Clear
2:55 AM 60.8 °F - 59.0 °F 94% 29.89 in 7.0 mi Calm Calm - N/A   Clear
3:15 AM 59.0 °F - 57.2 °F 94% 29.88 in 7.0 mi SSE 3.5 mph - N/A   Clear
3:35 AM 59.0 °F - 57.2 °F 94% 29.88 in 5.0 mi Calm Calm - N/A   Clear
3:55 AM 59.0 °F - 57.2 °F 94% 29.89 in 5.0 mi Calm Calm - N/A   Clear
4:15 AM 60.8 °F - 59.0 °F 94% 29.89 in 7.0 mi SSE 3.5 mph - N/A   Clear
4:35 AM 59.0 °F - 59.0 °F 100% 29.89 in 7.0 mi SE 3.5 mph - N/A   Clear
4:55 AM 59.0 °F - 57.2 °F 94% 29.89 in 4.0 mi Calm Calm - N/A   Clear
5:15 AM 59.0 °F - 57.2 °F 94% 29.89 in 0.5 mi Calm Calm - N/A Fog Fog
5:35 AM 57.2 °F - 55.4 °F 94% 29.89 in 5.0 mi East 3.5 mph - N/A   Clear
5:55 AM 57.2 °F - 55.4 °F 94% 29.89 in 7.0 mi East 4.6 mph - N/A   Clear
6:15 AM 59.0 °F - 57.2 °F 94% 29.89 in 10.0 mi East 5.8 mph - N/A   Clear
6:35 AM 59.0 °F - 55.4 °F 88% 29.90 in 10.0 mi SSE 3.5 mph - N/A   Clear
6:55 AM 59.0 °F - 57.2 °F 94% 29.91 in 7.0 mi SE 3.5 mph - N/A   Clear
7:55 AM 60.8 °F - 59.0 °F 94% 29.93 in 10.0 mi SSE 5.8 mph - N/A   Clear
8:15 AM 60.8 °F - 59.0 °F 94% 29.93 in 10.0 mi SSE 4.6 mph - N/A   Clear
8:35 AM 62.6 °F - 60.8 °F 94% 29.94 in 10.0 mi SSE 3.5 mph - N/A   Clear
8:55 AM 64.4 °F - 60.8 °F 88% 29.94 in 10.0 mi SSE 5.8 mph - N/A   Clear
9:15 AM 68.0 °F - 60.8 °F 78% 29.95 in 10.0 mi SSE 5.8 mph - N/A   Clear
9:35 AM 69.8 °F - 60.8 °F 73% 29.95 in 10.0 mi SSE 6.9 mph - N/A   Clear
9:55 AM 71.6 °F - 60.8 °F 69% 29.95 in 10.0 mi SE 11.5 mph - N/A   Clear
10:15 AM 71.6 °F - 60.8 °F 69% 29.95 in 10.0 mi SE 12.7 mph - N/A   Clear
10:35 AM 73.4 °F - 60.8 °F 65% 29.95 in 10.0 mi SE 11.5 mph - N/A   Clear
10:55 AM 75.2 °F - 60.8 °F 61% 29.95 in 10.0 mi SSE 12.7 mph 17.3 mph N/A   Clear
11:15 AM 77.0 °F - 59.0 °F 54% 29.96 in 10.0 mi SSE 8.1 mph - N/A   Clear
11:35 AM 77.0 °F - 59.0 °F 54% 29.95 in 10.0 mi SE 11.5 mph 17.3 mph N/A   Clear
11:55 AM 78.8 °F - 59.0 °F 51% 29.95 in 10.0 mi SSE 10.4 mph 16.1 mph N/A   Clear
12:15 PM 78.8 °F - 59.0 °F 51% 29.95 in 10.0 mi SE 10.4 mph - N/A   Clear
12:35 PM 78.8 °F - 59.0 °F 51% 29.94 in 10.0 mi SE 12.7 mph - N/A   Clear
12:55 PM 80.6 °F 81.1 °F 59.0 °F 48% 29.94 in 10.0 mi SE 10.4 mph 16.1 mph N/A   Clear
1:15 PM 80.6 °F 81.1 °F 59.0 °F 48% 29.93 in 10.0 mi SE 12.7 mph 17.3 mph N/A   Clear
1:35 PM 80.6 °F 80.8 °F 57.2 °F 45% 29.93 in 10.0 mi SE 9.2 mph 16.1 mph N/A   Clear
1:55 PM 82.4 °F 82.0 °F 57.2 °F 42% 29.92 in 10.0 mi SE 8.1 mph 17.3 mph N/A   Clear
2:15 PM 82.4 °F 82.5 °F 59.0 °F 45% 29.91 in 10.0 mi SE 9.2 mph - N/A   Clear
2:35 PM 82.4 °F 82.0 °F 57.2 °F 42% 29.91 in 10.0 mi SSE 10.4 mph - N/A   Clear
2:55 PM 82.4 °F 82.0 °F 57.2 °F 42% 29.90 in 10.0 mi SE 11.5 mph - N/A   Clear
3:15 PM 82.4 °F 81.7 °F 55.4 °F 39% 29.90 in 10.0 mi SE 10.4 mph - N/A   Clear
3:35 PM 82.4 °F 82.5 °F 59.0 °F 45% 29.90 in 10.0 mi SE 10.4 mph 16.1 mph N/A   Clear
3:55 PM 82.4 °F 82.5 °F 59.0 °F 45% 29.90 in 10.0 mi ESE 11.5 mph 17.3 mph N/A   Clear
4:15 PM 82.4 °F 82.5 °F 59.0 °F 45% 29.90 in 10.0 mi SE 10.4 mph - N/A   Clear
4:35 PM 82.4 °F 82.5 °F 59.0 °F 45% 29.90 in 10.0 mi ESE 12.7 mph - N/A   Clear
4:55 PM 82.4 °F 82.0 °F 57.2 °F 42% 29.89 in 10.0 mi SE 13.8 mph - N/A   Clear
5:15 PM 82.4 °F 82.0 °F 57.2 °F 42% 29.89 in 10.0 mi SE 13.8 mph - N/A   Clear
5:35 PM 80.6 °F 81.1 °F 59.0 °F 48% 29.89 in 10.0 mi SE 10.4 mph 17.3 mph N/A   Clear
5:55 PM 80.6 °F 81.1 °F 59.0 °F 48% 29.89 in 10.0 mi SE 8.1 mph - N/A   Clear
6:15 PM 78.8 °F - 60.8 °F 54% 29.89 in 10.0 mi SE 6.9 mph - N/A   Clear
6:35 PM 77.0 °F - 60.8 °F 57% 29.90 in 10.0 mi SE 4.6 mph - N/A   Clear
7:15 PM 73.4 °F - 60.8 °F 65% 29.90 in 10.0 mi ESE 6.9 mph - N/A   Clear
7:35 PM 71.6 °F - 60.8 °F 69% 29.90 in 10.0 mi ESE 6.9 mph - N/A   Clear
7:55 PM 71.6 °F - 60.8 °F 69% 29.90 in 10.0 mi ESE 6.9 mph - N/A   Clear
8:15 PM 69.8 °F - 60.8 °F 73% 29.90 in 10.0 mi ESE 8.1 mph - N/A   Clear
8:35 PM 69.8 °F - 60.8 °F 73% 29.91 in 10.0 mi ESE 6.9 mph - N/A   Clear
8:55 PM 69.8 °F - 60.8 °F 73% 29.91 in 10.0 mi SE 8.1 mph - N/A   Clear
9:15 PM 69.8 °F - 60.8 °F 73% 29.92 in 10.0 mi SE 6.9 mph - N/A   Clear
9:35 PM 68.0 °F - 60.8 °F 78% 29.93 in 10.0 mi SE 6.9 mph - N/A   Clear
9:55 PM 68.0 °F - 60.8 °F 78% 29.93 in 10.0 mi SE 8.1 mph - N/A   Clear
10:15 PM 69.8 °F - 60.8 °F 73% 29.93 in 10.0 mi SE 8.1 mph - N/A   Clear
10:35 PM 69.8 °F - 60.8 °F 73% 29.93 in 10.0 mi SE 8.1 mph - N/A   Clear
10:55 PM 68.0 °F - 60.8 °F 78% 29.93 in 10.0 mi SE 9.2 mph - N/A   Clear
11:15 PM 68.0 °F - 60.8 °F 78% 29.93 in 10.0 mi SE 9.2 mph - N/A   Clear
11:35 PM 68.0 °F - 60.8 °F 78% 29.94 in 10.0 mi SSE 9.2 mph - N/A   Clear
11:55 PM 68.0 °F - 60.8 °F 78% 29.94 in 10.0 mi SE 8.1 mph - N/A   Clear